Hourly Data Report for August 25, 2020

LYTTON RCS
BRITISH COLUMBIA
Current Station Operator: ECCC - MSC

50°13'28.000" N
121°34'55.000" W
225.00 m
1114746
71765
VLY

Download Data

Hourly Data (August 2020)
Hourly Data Report for August 25, 2020
TIME Temp Definition
°C
Dew Point Definition
°C
Rel Hum Definition
%
Wind Dir Definition
10's deg

Wind Spd Definition
km/h
Visibility Definition
km
Stn Press Definition
kPa
Hmdx Definition


Wind Chill Definition


Weather Definition


00:00 14.5 10.4 76 19 5   98.77     LegendNANA
01:00 13.6 10.1 80 20 5   98.78     LegendNANA
02:00 12.8 10.0 83 21 3   98.82     LegendNANA
03:00 11.8 9.9 88   0   98.85     LegendNANA
04:00 11.2 9.7 91 2 2   98.90     LegendNANA
05:00 10.3 9.3 94   0   98.92     LegendNANA
06:00 10.2 9.4 95   0   98.94     LegendNANA
07:00 10.5 9.8 96 16 4   98.97     LegendNANA
08:00 13.2 9.7 79 15 4   98.93     LegendNANA
09:00 16.5 8.6 59 19 2   98.88     LegendNANA
10:00 19.0 6.3 43 21 2   98.79     LegendNANA
11:00 21.5 6.7 38 25 2   98.68     LegendNANA
12:00 25.0 6.6 31 18 7   98.56 25   LegendNANA
13:00 27.5 5.0 24 17 14   98.44 27   LegendNANA
14:00 29.2 5.1 22 18 24   98.34 29   LegendNANA
15:00 29.4 5.3 22 18 24   98.27 29   LegendNANA
16:00 27.6 6.2 26 19 22   98.23 27   LegendNANA
17:00 28.1 6.8 26 19 22   98.21 28   LegendNANA
18:00 25.9 7.2 30 20 17   98.23 26   LegendNANA
19:00 24.7 8.0 35 20 18   98.28 25   LegendNANA
20:00 23.5 9.3 40 20 20   98.40     LegendNANA
21:00 22.3 10.2 46 21 29   98.45     LegendNANA
22:00 21.1 10.3 50 19 27   98.49     LegendNANA
23:00 20.2 9.8 51 19 26   98.54     LegendNANA

Notes on Data Quality.

Legend

  • E = Estimated
  • M = Missing
  • NA = Not Available*
  • [empty] = Indicates an unobserved value
Date modified: